Regional Weather Roundup
Issued by NWS

Home | Current Version | Previous Version | Text Only | Print | Product List | Glossary On
Versions: 1 2 3 4 5 6 7 8 9 10 11 12 13 14 15 16 17 18 19 20 21 22 23 24 25 26 27 28 29 30 31 32 33 34 35 36 37 38 39 40 41 42 43 44 45 46 47 48 49 50
000
ASUS43 KOAX 180610
RWRNE

WEATHER ROUNDUP FOR NEBRASKA
NATIONAL WEATHER SERVICE OMAHA NE
100 AM CDT THU SEP 18 2014

NOTES: SATELLITE DATA IS BEING USED TO AUGMENT CLOUD COVER ABOVE
       12000 FEET.
       "FAIR" INDICATES FEW OR NO CLOUDS BELOW 12,000 FEET WITH NO
       SIGNIFICANT WEATHER AND/OR OBSTRUCTIONS TO VISIBILITY.

  * THESE STATIONS DO NOT REPORT WEATHER SUCH AS RAIN...SNOW OR FOG.

NEZ001>004-019>022-054>056-180700-
NEBRASKA PANHANDLE

CITY           SKY/WX    TMP DP  RH WIND       PRES   REMARKS
SCOTTSBLUFF    CLEAR     58  50  75 E3        29.98R
6HR MIN TEMP:  57; 6HR MAX TEMP:  83;

ALLIANCE       CLEAR     64  57  78 S13       29.97S
6HR MIN TEMP:  59; 6HR MAX TEMP:  82;

CHADRON        CLEAR     59  51  75 CALM      29.94S
6HR MIN TEMP:  59; 6HR MAX TEMP:  81;

KIMBALL        CLEAR     58  43  57 W6        30.02S
SIDNEY         CLEAR     58  53  84 SE7       30.02S
6HR MIN TEMP:  58; 6HR MAX TEMP:  81;

$$

NEZ057>060-069>072-079>082-180700-
SOUTHWEST NEBRASKA

CITY           SKY/WX    TMP DP  RH WIND       PRES   REMARKS
NORTH PLATTE   PTCLDY    61  59  93 E7        29.97R
6HR MIN TEMP:  60; 6HR MAX TEMP:  74;

IMPERIAL       MOCLDY    66  60  81 SE10      29.98R
6HR MIN TEMP:  66; 6HR MAX TEMP:  84;

LEXINGTON      CLEAR     62  60  92 CALM      29.97R
MCCOOK         PTCLDY    63  60  90 NE5       29.96S
6HR MIN TEMP:  63; 6HR MAX TEMP:  80;

OGALLALA       PTCLDY    67  62  85 SE6       29.98S
$$

NEZ005>010-023>029-035>040-094-180700-
NORTH CENTRAL NEBRASKA

CITY           SKY/WX    TMP DP  RH WIND       PRES   REMARKS
VALENTINE      CLEAR     60  55  83 E9        30.00R
6HR MIN TEMP:  60; 6HR MAX TEMP:  75;

AINSWORTH      CLEAR     58  55  88 E5        29.99S
BROKEN BOW     CLEAR     56  54  93 S5        29.97R FOG
6HR MIN TEMP:  55; 6HR MAX TEMP:  78;

O`NEILL        PTCLDY    60  57  89 E5        29.99R
ORD            PTCLDY    59  57  93 CALM      29.96R
6HR MIN TEMP:  59; 6HR MAX TEMP:  77;

THEDFORD       CLEAR     61  59  94 CALM      29.99R
$$

NEZ041-046>049-061>064-073>077-083>087-180700-
SOUTH CENTRAL NEBRASKA

CITY           SKY/WX    TMP DP  RH WIND       PRES   REMARKS
GRAND ISLAND   CLEAR     62  59  90 E6        29.96F
6HR MIN TEMP:  61; 6HR MAX TEMP:  76;

AURORA         CLEAR     60  60 100 E5        29.96F FOG
HASTINGS       CLEAR     64  59  83 SE8       29.96R
6HR MIN TEMP:  64; 6HR MAX TEMP:  75;

HEBRON         PTCLDY    62  60  91 CALM      29.94S FOG
HOLDREGE       CLEAR     61  59  93 E6        29.96S
KEARNEY *      CLEAR     59  57  94 SE5       29.97S
YORK           CLEAR     59  59 100 SE6       29.96F
$$

NEZ011>018-030>034-042>045-180700-
NORTHEAST NEBRASKA

CITY           SKY/WX    TMP DP  RH WIND       PRES   REMARKS
NORFOLK        CLEAR     59  57  93 SE5       29.97S
6HR MIN TEMP:  59; 6HR MAX TEMP:  75;

ALBION         PTCLDY    60  57  89 E3        29.97S
BLAIR          PTCLDY    63  58  85 E7        29.98S
COLUMBUS *     MOCLDY    61  57  88 E5        29.97S
FREMONT        PTCLDY    64  60  88 E5        29.98S
TEKAMAH        CLEAR     58  55  90 CALM      29.98S
6HR MIN TEMP:  58; 6HR MAX TEMP:  76;

WAYNE          CLEAR     51  51  97 CALM      29.98S
$$

NEZ050>053-065>068-078-088>093-180700-
SOUTHEAST NEBRASKA

CITY           SKY/WX    TMP DP  RH WIND       PRES   REMARKS
LINCOLN        PTCLDY    66  61  84 CALM      29.97S
6HR MIN TEMP:  63; 6HR MAX TEMP:  76;

OMAHA EPPLEY   PTCLDY    65  58  78 SE8       29.99R
6HR MIN TEMP:  64; 6HR MAX TEMP:  77;

BEATRICE       PTCLDY    62  61  95 E3        29.95S
FALLS CITY     MOCLDY    62  61  96 E6        29.95F
6HR MIN TEMP:  62; 6HR MAX TEMP:  74;

NEBRASKA CITY  MOCLDY    65  56  74 E8        29.97F
PLATTSMOUTH    CLOUDY    63  59  87 E7        29.98S
$$

NEZ044-045-051>053-067-180700-
OMAHA AREA

CITY           SKY/WX    TMP DP  RH WIND       PRES   REMARKS
OMAHA EPPLEY   PTCLDY    65  58  78 SE8       29.99R
6HR MIN TEMP:  64; 6HR MAX TEMP:  77;

BLAIR          PTCLDY    63  58  85 E7        29.98S
FREMONT        PTCLDY    64  60  88 E5        29.98S
MILLARD        MOCLDY    66  60  81 E3        29.98S
OFFUTT AFB     PTCLDY    64  63  99 E7        29.98R
PLATTSMOUTH    CLOUDY    63  59  87 E7        29.98S
WAHOO          FAIR      61  58  88 E5        29.96F
$$



USA.gov is the U.S. government's official web portal to all federal, state and local government web resources and services.